owner,sensor,date,latitude,longitude,air_temperature,qcFlag 
DISL,ioos:station:DISL:DISL:1,2016-10-01T00:00:00Z,30.2513,-88.0778,23.38,1111122 
DISL,ioos:station:DISL:DISL:1,2016-10-01T00:30:00Z,30.2513,-88.0778,23.82,1111122 
DISL,ioos:station:DISL:DISL:1,2016-10-01T01:00:00Z,30.2513,-88.0778,23.65,1111122 
DISL,ioos:station:DISL:DISL:1,2016-10-01T01:30:00Z,30.2513,-88.0778,23.66,1111122 
DISL,ioos:station:DISL:DISL:1,2016-10-01T02:00:00Z,30.2513,-88.0778,23.8,1111122 
DISL,ioos:station:DISL:DISL:1,2016-10-01T02:30:00Z,30.2513,-88.0778,24.93,1111122 
DISL,ioos:station:DISL:DISL:1,2016-10-01T03:00:00Z,30.2513,-88.0778,24.71,1111122 
DISL,ioos:station:DISL:DISL:1,2016-10-01T03:30:00Z,30.2513,-88.0778,24.77,1111122 
DISL,ioos:station:DISL:DISL:1,2016-10-01T04:00:00Z,30.2513,-88.0778,24.49,1111122 
DISL,ioos:station:DISL:DISL:1,2016-10-01T04:30:00Z,30.2513,-88.0778,24.36,1111122 
DISL,ioos:station:DISL:DISL:1,2016-10-01T05:30:00Z,30.2513,-88.0778,24.05,1111122 
DISL,ioos:station:DISL:DISL:1,2016-10-01T06:00:00Z,30.2513,-88.0778,24.02,1111122 
DISL,ioos:station:DISL:DISL:1,2016-10-01T06:30:00Z,30.2513,-88.0778,24.02,1111122 
DISL,ioos:station:DISL:DISL:1,2016-10-01T07:00:00Z,30.2513,-88.0778,23.85,1111122 
DISL,ioos:station:DISL:DISL:1,2016-10-01T07:30:00Z,30.2513,-88.0778,24.13,1111122 
DISL,ioos:station:DISL:DISL:1,2016-10-01T08:00:00Z,30.2513,-88.0778,24.3,1111122 
DISL,ioos:station:DISL:DISL:1,2016-10-01T08:30:00Z,30.2513,-88.0778,24.13,1111122 
DISL,ioos:station:DISL:DISL:1,2016-10-01T09:00:00Z,30.2513,-88.0778,24.3,1111122 
DISL,ioos:station:DISL:DISL:1,2016-10-01T09:30:00Z,30.2513,-88.0778,24.06,1111122 
DISL,ioos:station:DISL:DISL:1,2016-10-01T10:00:00Z,30.2513,-88.0778,24.13,1111122 
DISL,ioos:station:DISL:DISL:1,2016-10-01T10:30:00Z,30.2513,-88.0778,24.23,1111122 
DISL,ioos:station:DISL:DISL:1,2016-10-01T11:00:00Z,30.2513,-88.0778,24.13,1111122 
DISL,ioos:station:DISL:DISL:1,2016-10-01T11:30:00Z,30.2513,-88.0778,24.23,1111122 
DISL,ioos:station:DISL:DISL:1,2016-10-01T12:00:00Z,30.2513,-88.0778,24.47,1111122 
DISL,ioos:station:DISL:DISL:1,2016-10-01T12:30:00Z,30.2513,-88.0778,25.05,1111122 
DISL,ioos:station:DISL:DISL:1,2016-10-01T13:00:00Z,30.2513,-88.0778,24.9,1111122 
DISL,ioos:station:DISL:DISL:1,2016-10-01T13:30:00Z,30.2513,-88.0778,25.01,1111122 
DISL,ioos:station:DISL:DISL:1,2016-10-01T14:00:00Z,30.2513,-88.0778,24.63,1111122 
DISL,ioos:station:DISL:DISL:1,2016-10-01T14:30:00Z,30.2513,-88.0778,24.57,1111122 
DISL,ioos:station:DISL:DISL:1,2016-10-01T15:00:00Z,30.2513,-88.0778,24.44,1111122 
DISL,ioos:station:DISL:DISL:1,2016-10-01T15:30:00Z,30.2513,-88.0778,24.24,1111122 
DISL,ioos:station:DISL:DISL:1,2016-10-01T16:00:00Z,30.2513,-88.0778,24.37,1111122 
DISL,ioos:station:DISL:DISL:1,2016-10-01T16:30:00Z,30.2513,-88.0778,24.51,1111122 
DISL,ioos:station:DISL:DISL:1,2016-10-01T17:00:00Z,30.2513,-88.0778,24.71,1111122 
DISL,ioos:station:DISL:DISL:1,2016-10-01T17:30:00Z,30.2513,-88.0778,24.78,1111122 
DISL,ioos:station:DISL:DISL:1,2016-10-01T18:00:00Z,30.2513,-88.0778,24.95,1111122 
DISL,ioos:station:DISL:DISL:1,2016-10-01T18:30:00Z,30.2513,-88.0778,24.9,1111122 
DISL,ioos:station:DISL:DISL:1,2016-10-01T19:00:00Z,30.2513,-88.0778,25.17,1111122 
DISL,ioos:station:DISL:DISL:1,2016-10-01T19:30:00Z,30.2513,-88.0778,25.41,1111122 
DISL,ioos:station:DISL:DISL:1,2016-10-01T20:00:00Z,30.2513,-88.0778,25.39,1111122 
DISL,ioos:station:DISL:DISL:1,2016-10-01T20:30:00Z,30.2513,-88.0778,25.77,1111122 
DISL,ioos:station:DISL:DISL:1,2016-10-01T21:00:00Z,30.2513,-88.0778,25.82,1111122 
DISL,ioos:station:DISL:DISL:1,2016-10-01T21:30:00Z,30.2513,-88.0778,26.47,1111122 
DISL,ioos:station:DISL:DISL:1,2016-10-01T22:00:00Z,30.2513,-88.0778,26.17,1111122 
DISL,ioos:station:DISL:DISL:1,2016-10-01T22:30:00Z,30.2513,-88.0778,25.7,1111122 
DISL,ioos:station:DISL:DISL:1,2016-10-01T23:00:00Z,30.2513,-88.0778,25.3,1111122 
DISL,ioos:station:DISL:DISL:1,2016-10-01T23:30:00Z,30.2513,-88.0778,24.94,1111122 
DISL,ioos:station:DISL:DISL:1,2016-10-02T00:00:00Z,30.2513,-88.0778,24.71,1111122 
DISL,ioos:station:DISL:DISL:1,2016-10-02T00:30:00Z,30.2513,-88.0778,24.69,1111122 
DISL,ioos:station:DISL:DISL:1,2016-10-02T01:00:00Z,30.2513,-88.0778,24.69,1111122 
DISL,ioos:station:DISL:DISL:1,2016-10-02T01:30:00Z,30.2513,-88.0778,24.56,1111122 
DISL,ioos:station:DISL:DISL:1,2016-10-02T02:00:00Z,30.2513,-88.0778,24.34,1111122 
DISL,ioos:station:DISL:DISL:1,2016-10-02T02:30:00Z,30.2513,-88.0778,24.51,1111122 
DISL,ioos:station:DISL:DISL:1,2016-10-02T03:00:00Z,30.2513,-88.0778,24.34,1111122 
DISL,ioos:station:DISL:DISL:1,2016-10-02T03:30:00Z,30.2513,-88.0778,24.44,1111122 
DISL,ioos:station:DISL:DISL:1,2016-10-02T04:00:00Z,30.2513,-88.0778,24.54,1111122 
DISL,ioos:station:DISL:DISL:1,2016-10-02T04:30:00Z,30.2513,-88.0778,24.37,1111122 
DISL,ioos:station:DISL:DISL:1,2016-10-02T05:30:00Z,30.2513,-88.0778,24.17,1111122 
DISL,ioos:station:DISL:DISL:1,2016-10-02T06:00:00Z,30.2513,-88.0778,24.0,1111122 
DISL,ioos:station:DISL:DISL:1,2016-10-02T06:30:00Z,30.2513,-88.0778,24.24,1111122 
DISL,ioos:station:DISL:DISL:1,2016-10-02T07:00:00Z,30.2513,-88.0778,23.9,1111122 
DISL,ioos:station:DISL:DISL:1,2016-10-02T07:30:00Z,30.2513,-88.0778,24.38,1111122 
DISL,ioos:station:DISL:DISL:1,2016-10-02T08:00:00Z,30.2513,-88.0778,24.24,1111122 
DISL,ioos:station:DISL:DISL:1,2016-10-02T08:30:00Z,30.2513,-88.0778,24.72,1111122 
DISL,ioos:station:DISL:DISL:1,2016-10-02T09:00:00Z,30.2513,-88.0778,24.58,1111122 
DISL,ioos:station:DISL:DISL:1,2016-10-02T09:30:00Z,30.2513,-88.0778,24.84,1111122 
DISL,ioos:station:DISL:DISL:1,2016-10-02T10:00:00Z,30.2513,-88.0778,24.45,1111122 
DISL,ioos:station:DISL:DISL:1,2016-10-02T10:30:00Z,30.2513,-88.0778,24.42,1111122 
DISL,ioos:station:DISL:DISL:1,2016-10-02T11:00:00Z,30.2513,-88.0778,24.25,1111122 
DISL,ioos:station:DISL:DISL:1,2016-10-02T11:30:00Z,30.2513,-88.0778,24.25,1111122 
DISL,ioos:station:DISL:DISL:1,2016-10-02T12:00:00Z,30.2513,-88.0778,24.35,1111122 
DISL,ioos:station:DISL:DISL:1,2016-10-02T12:30:00Z,30.2513,-88.0778,24.31,1111122 
DISL,ioos:station:DISL:DISL:1,2016-10-02T13:00:00Z,30.2513,-88.0778,24.11,1111122 
DISL,ioos:station:DISL:DISL:1,2016-10-02T13:30:00Z,30.2513,-88.0778,23.87,1111122 
DISL,ioos:station:DISL:DISL:1,2016-10-02T14:00:00Z,30.2513,-88.0778,23.8,1111122 
DISL,ioos:station:DISL:DISL:1,2016-10-02T14:30:00Z,30.2513,-88.0778,23.8,1111122 
DISL,ioos:station:DISL:DISL:1,2016-10-02T15:00:00Z,30.2513,-88.0778,24.07,1111122 
DISL,ioos:station:DISL:DISL:1,2016-10-02T15:30:00Z,30.2513,-88.0778,24.21,1111122 
DISL,ioos:station:DISL:DISL:1,2016-10-02T16:00:00Z,30.2513,-88.0778,24.12,1111122 
DISL,ioos:station:DISL:DISL:1,2016-10-02T16:30:00Z,30.2513,-88.0778,24.67,1111122 
DISL,ioos:station:DISL:DISL:1,2016-10-02T17:00:00Z,30.2513,-88.0778,24.52,1111122 
DISL,ioos:station:DISL:DISL:1,2016-10-02T17:30:00Z,30.2513,-88.0778,24.85,1111122 
DISL,ioos:station:DISL:DISL:1,2016-10-02T18:00:00Z,30.2513,-88.0778,24.95,1111122 
DISL,ioos:station:DISL:DISL:1,2016-10-02T18:30:00Z,30.2513,-88.0778,24.99,1111122 
DISL,ioos:station:DISL:DISL:1,2016-10-02T19:00:00Z,30.2513,-88.0778,25.39,1111122 
DISL,ioos:station:DISL:DISL:1,2016-10-02T19:30:00Z,30.2513,-88.0778,25.55,1111122 
DISL,ioos:station:DISL:DISL:1,2016-10-02T20:00:00Z,30.2513,-88.0778,25.85,1111122 
DISL,ioos:station:DISL:DISL:1,2016-10-02T20:30:00Z,30.2513,-88.0778,25.63,1111122 
DISL,ioos:station:DISL:DISL:1,2016-10-02T21:00:00Z,30.2513,-88.0778,26.13,1111122 
DISL,ioos:station:DISL:DISL:1,2016-10-02T21:30:00Z,30.2513,-88.0778,26.47,1111122 
DISL,ioos:station:DISL:DISL:1,2016-10-02T22:00:00Z,30.2513,-88.0778,26.81,1111122 
DISL,ioos:station:DISL:DISL:1,2016-10-02T22:30:00Z,30.2513,-88.0778,26.13,1111122 
DISL,ioos:station:DISL:DISL:1,2016-10-02T23:00:00Z,30.2513,-88.0778,26.14,1111122 
DISL,ioos:station:DISL:DISL:1,2016-10-02T23:30:00Z,30.2513,-88.0778,25.88,1111122 
DISL,ioos:station:DISL:DISL:1,2016-10-03T00:00:00Z,30.2513,-88.0778,25.9,1111122 
DISL,ioos:station:DISL:DISL:1,2016-10-03T00:30:00Z,30.2513,-88.0778,25.66,1111122 
DISL,ioos:station:DISL:DISL:1,2016-10-03T01:00:00Z,30.2513,-88.0778,25.78,1111122 
DISL,ioos:station:DISL:DISL:1,2016-10-03T01:30:00Z,30.2513,-88.0778,26.06,1111122 
DISL,ioos:station:DISL:DISL:1,2016-10-03T02:00:00Z,30.2513,-88.0778,25.92,1111122 
DISL,ioos:station:DISL:DISL:1,2016-10-03T02:30:00Z,30.2513,-88.0778,25.86,1111122 
DISL,ioos:station:DISL:DISL:1,2016-10-03T03:00:00Z,30.2513,-88.0778,25.75,1111122 
DISL,ioos:station:DISL:DISL:1,2016-10-03T03:30:00Z,30.2513,-88.0778,25.82,1111122 
DISL,ioos:station:DISL:DISL:1,2016-10-03T04:00:00Z,30.2513,-88.0778,25.75,1111122 
DISL,ioos:station:DISL:DISL:1,2016-10-03T04:30:00Z,30.2513,-88.0778,25.75,1111122 
DISL,ioos:station:DISL:DISL:1,2016-10-03T05:30:00Z,30.2513,-88.0778,25.44,1111122 
DISL,ioos:station:DISL:DISL:1,2016-10-03T06:00:00Z,30.2513,-88.0778,25.34,1111122 
DISL,ioos:station:DISL:DISL:1,2016-10-03T06:30:00Z,30.2513,-88.0778,25.31,1111122 
DISL,ioos:station:DISL:DISL:1,2016-10-03T07:00:00Z,30.2513,-88.0778,25.31,1111122 
DISL,ioos:station:DISL:DISL:1,2016-10-03T07:30:00Z,30.2513,-88.0778,25.1,1111122 
DISL,ioos:station:DISL:DISL:1,2016-10-03T08:00:00Z,30.2513,-88.0778,25.17,1111122 
DISL,ioos:station:DISL:DISL:1,2016-10-03T08:30:00Z,30.2513,-88.0778,24.9,1111122 
DISL,ioos:station:DISL:DISL:1,2016-10-03T09:00:00Z,30.2513,-88.0778,24.83,1111122 
DISL,ioos:station:DISL:DISL:1,2016-10-03T09:30:00Z,30.2513,-88.0778,24.97,1111122 
DISL,ioos:station:DISL:DISL:1,2016-10-03T10:00:00Z,30.2513,-88.0778,24.8,1111122 
DISL,ioos:station:DISL:DISL:1,2016-10-03T10:30:00Z,30.2513,-88.0778,24.7,1111122 
DISL,ioos:station:DISL:DISL:1,2016-10-03T11:00:00Z,30.2513,-88.0778,24.86,1111122 
DISL,ioos:station:DISL:DISL:1,2016-10-03T11:30:00Z,30.2513,-88.0778,24.35,1111122 
DISL,ioos:station:DISL:DISL:1,2016-10-03T12:00:00Z,30.2513,-88.0778,24.07,1111122 
DISL,ioos:station:DISL:DISL:1,2016-10-03T12:30:00Z,30.2513,-88.0778,24.21,1111122 
DISL,ioos:station:DISL:DISL:1,2016-10-03T13:00:00Z,30.2513,-88.0778,24.69,1111122 
DISL,ioos:station:DISL:DISL:1,2016-10-03T13:30:00Z,30.2513,-88.0778,23.76,1111122 
DISL,ioos:station:DISL:DISL:1,2016-10-03T14:00:00Z,30.2513,-88.0778,23.97,1111122 
DISL,ioos:station:DISL:DISL:1,2016-10-03T14:30:00Z,30.2513,-88.0778,24.17,1111122 
DISL,ioos:station:DISL:DISL:1,2016-10-03T15:00:00Z,30.2513,-88.0778,24.33,1111122 
DISL,ioos:station:DISL:DISL:1,2016-10-03T15:30:00Z,30.2513,-88.0778,24.29,1111122 
DISL,ioos:station:DISL:DISL:1,2016-10-03T16:00:00Z,30.2513,-88.0778,24.25,1111122 
DISL,ioos:station:DISL:DISL:1,2016-10-03T16:30:00Z,30.2513,-88.0778,24.92,1111122 
DISL,ioos:station:DISL:DISL:1,2016-10-03T17:00:00Z,30.2513,-88.0778,25.06,1111122 
DISL,ioos:station:DISL:DISL:1,2016-10-03T17:30:00Z,30.2513,-88.0778,25.43,1111122 
DISL,ioos:station:DISL:DISL:1,2016-10-03T18:00:00Z,30.2513,-88.0778,25.83,1111122 
DISL,ioos:station:DISL:DISL:1,2016-10-03T18:30:00Z,30.2513,-88.0778,25.96,1111122 
DISL,ioos:station:DISL:DISL:1,2016-10-03T19:00:00Z,30.2513,-88.0778,26.13,1111122 
DISL,ioos:station:DISL:DISL:1,2016-10-03T19:30:00Z,30.2513,-88.0778,26.29,1111122 
DISL,ioos:station:DISL:DISL:1,2016-10-03T20:00:00Z,30.2513,-88.0778,26.66,1111122 
DISL,ioos:station:DISL:DISL:1,2016-10-03T20:30:00Z,30.2513,-88.0778,26.64,1111122 
DISL,ioos:station:DISL:DISL:1,2016-10-03T21:00:00Z,30.2513,-88.0778,27.52,1111122 
DISL,ioos:station:DISL:DISL:1,2016-10-03T21:30:00Z,30.2513,-88.0778,27.6,1111122 
DISL,ioos:station:DISL:DISL:1,2016-10-03T22:00:00Z,30.2513,-88.0778,27.89,1111122 
DISL,ioos:station:DISL:DISL:1,2016-10-03T22:30:00Z,30.2513,-88.0778,27.61,1111122 
DISL,ioos:station:DISL:DISL:1,2016-10-03T23:00:00Z,30.2513,-88.0778,27.35,1111122 
DISL,ioos:station:DISL:DISL:1,2016-10-03T23:30:00Z,30.2513,-88.0778,26.78,1111122 
DISL,ioos:station:DISL:DISL:1,2016-10-04T00:00:00Z,30.2513,-88.0778,26.7,1111122 
DISL,ioos:station:DISL:DISL:1,2016-10-04T00:30:00Z,30.2513,-88.0778,25.97,1111122 
DISL,ioos:station:DISL:DISL:1,2016-10-04T01:00:00Z,30.2513,-88.0778,26.46,1111122 
DISL,ioos:station:DISL:DISL:1,2016-10-04T01:30:00Z,30.2513,-88.0778,26.4,1111122 
DISL,ioos:station:DISL:DISL:1,2016-10-04T02:00:00Z,30.2513,-88.0778,25.51,1111122 
DISL,ioos:station:DISL:DISL:1,2016-10-04T02:30:00Z,30.2513,-88.0778,26.06,1111122 
DISL,ioos:station:DISL:DISL:1,2016-10-04T03:00:00Z,30.2513,-88.0778,25.65,1111122 
DISL,ioos:station:DISL:DISL:1,2016-10-04T03:30:00Z,30.2513,-88.0778,26.14,1111122 
DISL,ioos:station:DISL:DISL:1,2016-10-04T04:00:00Z,30.2513,-88.0778,25.11,1111122 
DISL,ioos:station:DISL:DISL:1,2016-10-04T04:30:00Z,30.2513,-88.0778,25.11,1111122 
DISL,ioos:station:DISL:DISL:1,2016-10-04T05:30:00Z,30.2513,-88.0778,25.79,1111122 
DISL,ioos:station:DISL:DISL:1,2016-10-04T06:00:00Z,30.2513,-88.0778,25.79,1111122 
DISL,ioos:station:DISL:DISL:1,2016-10-04T06:30:00Z,30.2513,-88.0778,25.79,1111122 
DISL,ioos:station:DISL:DISL:1,2016-10-04T07:00:00Z,30.2513,-88.0778,25.62,1111122 
DISL,ioos:station:DISL:DISL:1,2016-10-04T07:30:00Z,30.2513,-88.0778,25.65,1111122 
DISL,ioos:station:DISL:DISL:1,2016-10-04T08:00:00Z,30.2513,-88.0778,25.34,1111122 
DISL,ioos:station:DISL:DISL:1,2016-10-04T08:30:00Z,30.2513,-88.0778,25.24,1111122 
DISL,ioos:station:DISL:DISL:1,2016-10-04T09:00:00Z,30.2513,-88.0778,24.96,1111122 
DISL,ioos:station:DISL:DISL:1,2016-10-04T09:30:00Z,30.2513,-88.0778,25.03,1111122 
DISL,ioos:station:DISL:DISL:1,2016-10-04T10:00:00Z,30.2513,-88.0778,25.24,1111122 
DISL,ioos:station:DISL:DISL:1,2016-10-04T10:30:00Z,30.2513,-88.0778,25.17,1111122 
DISL,ioos:station:DISL:DISL:1,2016-10-04T11:00:00Z,30.2513,-88.0778,25.14,1111122 
DISL,ioos:station:DISL:DISL:1,2016-10-04T11:30:00Z,30.2513,-88.0778,24.86,1111122 
DISL,ioos:station:DISL:DISL:1,2016-10-04T12:00:00Z,30.2513,-88.0778,24.96,1111122 
DISL,ioos:station:DISL:DISL:1,2016-10-04T12:30:00Z,30.2513,-88.0778,25.51,1111122 
DISL,ioos:station:DISL:DISL:1,2016-10-04T13:00:00Z,30.2513,-88.0778,25.49,1111122 
DISL,ioos:station:DISL:DISL:1,2016-10-04T13:30:00Z,30.2513,-88.0778,24.81,1111122 
DISL,ioos:station:DISL:DISL:1,2016-10-04T14:00:00Z,30.2513,-88.0778,25.56,1111122 
DISL,ioos:station:DISL:DISL:1,2016-10-04T14:30:00Z,30.2513,-88.0778,25.34,1111122 
DISL,ioos:station:DISL:DISL:1,2016-10-04T15:00:00Z,30.2513,-88.0778,25.71,1111122 
DISL,ioos:station:DISL:DISL:1,2016-10-04T15:30:00Z,30.2513,-88.0778,26.02,1111122 
DISL,ioos:station:DISL:DISL:1,2016-10-04T16:00:00Z,30.2513,-88.0778,26.5,1111122 
DISL,ioos:station:DISL:DISL:1,2016-10-04T16:30:00Z,30.2513,-88.0778,27.11,1111122 
DISL,ioos:station:DISL:DISL:1,2016-10-04T17:00:00Z,30.2513,-88.0778,27.07,1111122 
DISL,ioos:station:DISL:DISL:1,2016-10-04T17:30:00Z,30.2513,-88.0778,26.79,1111122 
DISL,ioos:station:DISL:DISL:1,2016-10-04T18:00:00Z,30.2513,-88.0778,27.24,1111122 
DISL,ioos:station:DISL:DISL:1,2016-10-04T18:30:00Z,30.2513,-88.0778,27.26,1111122 
DISL,ioos:station:DISL:DISL:1,2016-10-04T19:00:00Z,30.2513,-88.0778,27.47,1111122 
DISL,ioos:station:DISL:DISL:1,2016-10-04T19:30:00Z,30.2513,-88.0778,27.47,1111122 
DISL,ioos:station:DISL:DISL:1,2016-10-04T20:00:00Z,30.2513,-88.0778,27.81,1111122 
DISL,ioos:station:DISL:DISL:1,2016-10-04T20:30:00Z,30.2513,-88.0778,27.64,1111122 
DISL,ioos:station:DISL:DISL:1,2016-10-04T21:00:00Z,30.2513,-88.0778,27.91,1111122 
DISL,ioos:station:DISL:DISL:1,2016-10-04T21:30:00Z,30.2513,-88.0778,27.74,1111122 
DISL,ioos:station:DISL:DISL:1,2016-10-04T22:00:00Z,30.2513,-88.0778,27.91,1111122 
DISL,ioos:station:DISL:DISL:1,2016-10-04T22:30:00Z,30.2513,-88.0778,28.12,1111122 
DISL,ioos:station:DISL:DISL:1,2016-10-04T23:00:00Z,30.2513,-88.0778,27.88,1111122 
DISL,ioos:station:DISL:DISL:1,2016-10-04T23:30:00Z,30.2513,-88.0778,27.51,1111122 
DISL,ioos:station:DISL:DISL:1,2016-10-05T00:00:00Z,30.2513,-88.0778,27.49,1111122 
DISL,ioos:station:DISL:DISL:1,2016-10-05T00:30:00Z,30.2513,-88.0778,27.63,1111122 
DISL,ioos:station:DISL:DISL:1,2016-10-05T01:00:00Z,30.2513,-88.0778,27.39,1111122 
DISL,ioos:station:DISL:DISL:1,2016-10-05T01:30:00Z,30.2513,-88.0778,27.47,1111122 
DISL,ioos:station:DISL:DISL:1,2016-10-05T02:00:00Z,30.2513,-88.0778,27.41,1111122 
DISL,ioos:station:DISL:DISL:1,2016-10-05T02:30:00Z,30.2513,-88.0778,27.58,1111122 
DISL,ioos:station:DISL:DISL:1,2016-10-05T03:00:00Z,30.2513,-88.0778,27.37,1111122 
DISL,ioos:station:DISL:DISL:1,2016-10-05T03:30:00Z,30.2513,-88.0778,27.58,1111122 
DISL,ioos:station:DISL:DISL:1,2016-10-05T04:00:00Z,30.2513,-88.0778,27.55,1111122 
DISL,ioos:station:DISL:DISL:1,2016-10-05T04:30:00Z,30.2513,-88.0778,27.13,1111122 
DISL,ioos:station:DISL:DISL:1,2016-10-05T05:30:00Z,30.2513,-88.0778,26.72,1111122 
DISL,ioos:station:DISL:DISL:1,2016-10-05T06:00:00Z,30.2513,-88.0778,26.66,1111122 
DISL,ioos:station:DISL:DISL:1,2016-10-05T06:30:00Z,30.2513,-88.0778,26.18,1111122 
DISL,ioos:station:DISL:DISL:1,2016-10-05T07:00:00Z,30.2513,-88.0778,26.11,1111122 
DISL,ioos:station:DISL:DISL:1,2016-10-05T07:30:00Z,30.2513,-88.0778,26.42,1111122 
DISL,ioos:station:DISL:DISL:1,2016-10-05T08:00:00Z,30.2513,-88.0778,26.31,1111122 
DISL,ioos:station:DISL:DISL:1,2016-10-05T08:30:00Z,30.2513,-88.0778,25.9,1111122 
DISL,ioos:station:DISL:DISL:1,2016-10-05T09:00:00Z,30.2513,-88.0778,25.9,1111122 
DISL,ioos:station:DISL:DISL:1,2016-10-05T09:30:00Z,30.2513,-88.0778,25.49,1111122 
DISL,ioos:station:DISL:DISL:1,2016-10-05T10:00:00Z,30.2513,-88.0778,25.35,1111122 
DISL,ioos:station:DISL:DISL:1,2016-10-05T10:30:00Z,30.2513,-88.0778,25.01,1111122 
DISL,ioos:station:DISL:DISL:1,2016-10-05T11:00:00Z,30.2513,-88.0778,24.38,1111122 
DISL,ioos:station:DISL:DISL:1,2016-10-05T11:30:00Z,30.2513,-88.0778,24.21,1111122 
DISL,ioos:station:DISL:DISL:1,2016-10-05T12:00:00Z,30.2513,-88.0778,23.9,1111122 
DISL,ioos:station:DISL:DISL:1,2016-10-05T12:30:00Z,30.2513,-88.0778,23.87,1111122 
DISL,ioos:station:DISL:DISL:1,2016-10-05T13:00:00Z,30.2513,-88.0778,23.56,1111122 
DISL,ioos:station:DISL:DISL:1,2016-10-05T13:30:00Z,30.2513,-88.0778,23.83,1111122 
DISL,ioos:station:DISL:DISL:1,2016-10-05T14:00:00Z,30.2513,-88.0778,23.32,1111122 
DISL,ioos:station:DISL:DISL:1,2016-10-05T14:30:00Z,30.2513,-88.0778,23.62,1111122 
DISL,ioos:station:DISL:DISL:1,2016-10-05T15:00:00Z,30.2513,-88.0778,23.44,1111122 
DISL,ioos:station:DISL:DISL:1,2016-10-05T15:30:00Z,30.2513,-88.0778,23.71,1111122 
DISL,ioos:station:DISL:DISL:1,2016-10-05T16:00:00Z,30.2513,-88.0778,24.39,1111122 
DISL,ioos:station:DISL:DISL:1,2016-10-05T16:30:00Z,30.2513,-88.0778,25.15,1111122 
DISL,ioos:station:DISL:DISL:1,2016-10-05T17:00:00Z,30.2513,-88.0778,25.4,1111122 
DISL,ioos:station:DISL:DISL:1,2016-10-05T17:30:00Z,30.2513,-88.0778,25.88,1111122 
DISL,ioos:station:DISL:DISL:1,2016-10-05T18:00:00Z,30.2513,-88.0778,25.87,1111122 
DISL,ioos:station:DISL:DISL:1,2016-10-05T18:30:00Z,30.2513,-88.0778,26.27,1111122 
DISL,ioos:station:DISL:DISL:1,2016-10-05T19:00:00Z,30.2513,-88.0778,26.35,1111122 
DISL,ioos:station:DISL:DISL:1,2016-10-05T19:30:00Z,30.2513,-88.0778,26.62,1111122 
DISL,ioos:station:DISL:DISL:1,2016-10-05T20:00:00Z,30.2513,-88.0778,26.45,1111122 
DISL,ioos:station:DISL:DISL:1,2016-10-05T20:30:00Z,30.2513,-88.0778,26.76,1111122 
DISL,ioos:station:DISL:DISL:1,2016-10-05T21:00:00Z,30.2513,-88.0778,27.2,1111122 
DISL,ioos:station:DISL:DISL:1,2016-10-05T21:30:00Z,30.2513,-88.0778,27.59,1111122 
DISL,ioos:station:DISL:DISL:1,2016-10-05T22:00:00Z,30.2513,-88.0778,27.25,1111122 
DISL,ioos:station:DISL:DISL:1,2016-10-05T22:30:00Z,30.2513,-88.0778,27.43,1111122 
DISL,ioos:station:DISL:DISL:1,2016-10-05T23:00:00Z,30.2513,-88.0778,27.37,1111122 
DISL,ioos:station:DISL:DISL:1,2016-10-05T23:30:00Z,30.2513,-88.0778,27.12,1111122 
DISL,ioos:station:DISL:DISL:1,2016-10-06T00:00:00Z,30.2513,-88.0778,26.94,1111122 
DISL,ioos:station:DISL:DISL:1,2016-10-06T00:30:00Z,30.2513,-88.0778,26.55,1111122 
DISL,ioos:station:DISL:DISL:1,2016-10-06T01:00:00Z,30.2513,-88.0778,26.86,1111122 
DISL,ioos:station:DISL:DISL:1,2016-10-06T01:30:00Z,30.2513,-88.0778,27.96,1111122 
DISL,ioos:station:DISL:DISL:1,2016-10-06T02:00:00Z,30.2513,-88.0778,27.58,1111122 
DISL,ioos:station:DISL:DISL:1,2016-10-06T02:30:00Z,30.2513,-88.0778,27.37,1111122 
DISL,ioos:station:DISL:DISL:1,2016-10-06T03:00:00Z,30.2513,-88.0778,27.41,1111122 
DISL,ioos:station:DISL:DISL:1,2016-10-06T03:30:00Z,30.2513,-88.0778,27.17,1111122 
DISL,ioos:station:DISL:DISL:1,2016-10-06T04:00:00Z,30.2513,-88.0778,27.13,1111122 
DISL,ioos:station:DISL:DISL:1,2016-10-06T04:30:00Z,30.2513,-88.0778,26.86,1111122 
DISL,ioos:station:DISL:DISL:1,2016-10-06T05:30:00Z,30.2513,-88.0778,26.38,1111122 
DISL,ioos:station:DISL:DISL:1,2016-10-06T06:00:00Z,30.2513,-88.0778,26.04,1111122 
DISL,ioos:station:DISL:DISL:1,2016-10-06T06:30:00Z,30.2513,-88.0778,25.76,1111122 
DISL,ioos:station:DISL:DISL:1,2016-10-06T07:00:00Z,30.2513,-88.0778,25.9,1111122 
DISL,ioos:station:DISL:DISL:1,2016-10-06T07:30:00Z,30.2513,-88.0778,25.39,1111122 
DISL,ioos:station:DISL:DISL:1,2016-10-06T08:00:00Z,30.2513,-88.0778,25.32,1111122 
DISL,ioos:station:DISL:DISL:1,2016-10-06T08:30:00Z,30.2513,-88.0778,25.1,1111122 
DISL,ioos:station:DISL:DISL:1,2016-10-06T09:00:00Z,30.2513,-88.0778,25.14,1111122 
DISL,ioos:station:DISL:DISL:1,2016-10-06T09:30:00Z,30.2513,-88.0778,24.35,1111122 
DISL,ioos:station:DISL:DISL:1,2016-10-06T10:00:00Z,30.2513,-88.0778,23.73,1111122 
DISL,ioos:station:DISL:DISL:1,2016-10-06T10:30:00Z,30.2513,-88.0778,23.46,1111122 
DISL,ioos:station:DISL:DISL:1,2016-10-06T11:00:00Z,30.2513,-88.0778,23.56,1111122 
DISL,ioos:station:DISL:DISL:1,2016-10-06T11:30:00Z,30.2513,-88.0778,23.19,1111122 
DISL,ioos:station:DISL:DISL:1,2016-10-06T12:00:00Z,30.2513,-88.0778,23.16,1111122 
DISL,ioos:station:DISL:DISL:1,2016-10-06T12:30:00Z,30.2513,-88.0778,23.33,1111122 
DISL,ioos:station:DISL:DISL:1,2016-10-06T13:00:00Z,30.2513,-88.0778,23.26,1111122 
DISL,ioos:station:DISL:DISL:1,2016-10-06T13:30:00Z,30.2513,-88.0778,23.08,1111122 
DISL,ioos:station:DISL:DISL:1,2016-10-06T14:00:00Z,30.2513,-88.0778,23.15,1111122 
DISL,ioos:station:DISL:DISL:1,2016-10-06T14:30:00Z,30.2513,-88.0778,23.11,1111122 
DISL,ioos:station:DISL:DISL:1,2016-10-06T15:00:00Z,30.2513,-88.0778,23.53,1111122 
DISL,ioos:station:DISL:DISL:1,2016-10-06T15:30:00Z,30.2513,-88.0778,23.63,1111122 
DISL,ioos:station:DISL:DISL:1,2016-10-06T16:00:00Z,30.2513,-88.0778,23.78,1111122 
DISL,ioos:station:DISL:DISL:1,2016-10-06T16:30:00Z,30.2513,-88.0778,24.02,1111122 
DISL,ioos:station:DISL:DISL:1,2016-10-06T17:00:00Z,30.2513,-88.0778,24.36,1111122 
DISL,ioos:station:DISL:DISL:1,2016-10-06T17:30:00Z,30.2513,-88.0778,24.53,1111122 
DISL,ioos:station:DISL:DISL:1,2016-10-06T18:00:00Z,30.2513,-88.0778,24.73,1111122 
DISL,ioos:station:DISL:DISL:1,2016-10-06T18:30:00Z,30.2513,-88.0778,24.32,1111122 
DISL,ioos:station:DISL:DISL:1,2016-10-06T19:00:00Z,30.2513,-88.0778,24.74,1111122 
DISL,ioos:station:DISL:DISL:1,2016-10-06T19:30:00Z,30.2513,-88.0778,25.06,1111122 
DISL,ioos:station:DISL:DISL:1,2016-10-06T20:00:00Z,30.2513,-88.0778,25.74,1111122 
DISL,ioos:station:DISL:DISL:1,2016-10-06T20:30:00Z,30.2513,-88.0778,26.08,1111122 
DISL,ioos:station:DISL:DISL:1,2016-10-06T21:00:00Z,30.2513,-88.0778,26.36,1111122 
DISL,ioos:station:DISL:DISL:1,2016-10-06T21:30:00Z,30.2513,-88.0778,25.98,1111122 
DISL,ioos:station:DISL:DISL:1,2016-10-06T22:00:00Z,30.2513,-88.0778,26.24,1111122 
DISL,ioos:station:DISL:DISL:1,2016-10-06T22:30:00Z,30.2513,-88.0778,26.35,1111122 
DISL,ioos:station:DISL:DISL:1,2016-10-06T23:00:00Z,30.2513,-88.0778,26.52,1111122 
DISL,ioos:station:DISL:DISL:1,2016-10-06T23:30:00Z,30.2513,-88.0778,26.72,1111122 
DISL,ioos:station:DISL:DISL:1,2016-10-07T00:00:00Z,30.2513,-88.0778,26.79,1111122 
DISL,ioos:station:DISL:DISL:1,2016-10-07T00:30:00Z,30.2513,-88.0778,26.86,1111122 
DISL,ioos:station:DISL:DISL:1,2016-10-07T01:00:00Z,30.2513,-88.0778,26.66,1111122 
DISL,ioos:station:DISL:DISL:1,2016-10-07T01:30:00Z,30.2513,-88.0778,26.76,1111122 
DISL,ioos:station:DISL:DISL:1,2016-10-07T02:00:00Z,30.2513,-88.0778,27.51,1111122 
DISL,ioos:station:DISL:DISL:1,2016-10-07T02:30:00Z,30.2513,-88.0778,27.27,1111122 